Weather History for Tetuan, Morocco

Change the Weather History Date:

Saturday, September 28, 2013

  Actual Average Record
Temperature  
Mean Temperature 74 °F -  
Max Temperature 82 °F 72 °F 86 °F (2003)
Min Temperature 67 °F 61 °F 60 °F (1999)
Cooling Degree Days 10    
Growing Degree Days 24 (Base 50)    
Moisture  
Dew Point 63 °F    
Average Humidity 72    
Maximum Humidity 94    
Minimum Humidity 48    
Precipitation  
Precipitation 0.24 in - - ()
Sea Level Pressure  
Sea Level Pressure 29.90 in    
Wind  
Wind Speed 10 mph ()    
Max Wind Speed 17 mph    
Max Gust Speed 25 mph    
Visibility 3.3 miles    
Events Rain    
Averages and records for this station are not official NWS values.
T = Trace of Precipitation, MM = Missing Value Source: Averaged Metar Reports

Daily Weather History Graph

Daily Weather History Graph

Search for Another Location

Airport:

Trip Planner

Search our weather history database for the weather conditions in past years. The results will help you decide how hot, cold, wet, or windy it might be!

Date:

Astronomy

Sep. 28, 2013 Rise Set
Actual Time 7:13 AM WEST 7:09 PM WEST
Civil Twilight 6:48 AM WEST 7:34 PM WEST
Nautical Twilight 6:18 AM WEST 8:04 PM WEST
Astronomical Twilight 5:49 AM WEST 8:34 PM WEST
Moon 12:59 AM WEST (9/28) 3:09 PM WEST (9/28)
Length of Visible Light 12h 46m
Length of Day
11h 55m
Last Quarter, 38% of the Moon is Illuminated
Sep 28
Last Quarter
Oct 5
New
Oct 12
First Quarter
Oct 19
Full
Oct 27
Last Quarter

Hourly Weather History & Observations

Time (WEST) Temp. Heat Index Dew Point Humidity Pressure Visibility Wind Dir Wind Speed Gust Speed Precip Events Conditions
12:00 AM 77.0 °F - 59.0 °F 54% 29.89 in 0.8 mi SW 10.4 mph - N/A   Unknown
1:00 AM 78.8 °F - 59.0 °F 51% 29.86 in 0.8 mi SW 8.1 mph - N/A   Unknown
2:00 AM 71.6 °F - 66.2 °F 83% 29.89 in 0.7 mi West 15.0 mph - N/A   Unknown
3:00 AM 69.8 °F - 66.2 °F 88% 29.89 in 0.7 mi West 13.8 mph - N/A   Unknown
4:00 AM 69 °F - 66 °F 86% 29.88 in 1 mi WSW 6.9 mph - -  
4:00 AM 68.0 °F - 66.2 °F 94% 29.86 in 0.8 mi WSW 6.9 mph - N/A   Unknown
5:00 AM 68.0 °F - 64.4 °F 88% 29.86 in 0.9 mi West 6.9 mph - N/A   Unknown
6:00 AM 68.0 °F - 64.4 °F 88% 29.86 in 0.7 mi WSW 10.4 mph - N/A   Unknown
7:00 AM 69 °F - 64 °F 79% 29.88 in 5 mi WSW 10.4 mph - -   Partly Cloudy
7:00 AM 69.8 °F - 64.4 °F 83% 29.86 in 5.0 mi WSW 10.4 mph - N/A   Mostly Cloudy
8:00 AM 69.8 °F - 64.4 °F 83% 29.89 in 5.0 mi West 10.4 mph - N/A   Unknown
9:00 AM 71.6 °F - 64.4 °F 78% 29.89 in - WSW 6.9 mph - N/A   Clear
10:00 AM 74 °F - 64 °F 65% 29.91 in 6 mi SW 4.6 mph - -   Mostly Cloudy
10:00 AM 73.4 °F - 64.4 °F 73% 29.89 in - SW 4.6 mph - N/A   Clear
11:00 AM 75.2 °F - 62.6 °F 65% 29.92 in - WSW 13.8 mph 25.3 mph N/A   Clear
12:00 PM 77.0 °F - 62.6 °F 61% 29.92 in - WSW 15.0 mph - N/A   Clear
1:00 PM 78 °F - 62 °F 48% 29.92 in 6 mi WSW 13.8 mph - -   Partly Cloudy
1:00 PM 78.8 °F - 62.6 °F 57% 29.92 in 6.2 mi WSW 13.8 mph - N/A   Mostly Cloudy
2:00 PM 82.4 °F 83.4 °F 62.6 °F 51% 29.89 in 6.2 mi WSW 16.1 mph - N/A   Mostly Cloudy
3:00 PM 80.6 °F 81.5 °F 60.8 °F 51% 29.86 in 6.2 mi SW 15.0 mph - N/A   Mostly Cloudy
4:00 PM 77 °F - 62 °F 49% 29.89 in 5 mi WSW 17.3 mph - -   Mostly Cloudy
4:00 PM 77.0 °F - 60.8 °F 57% 29.89 in 5.0 mi WSW 17.3 mph - N/A   Scattered Clouds
5:00 PM 78.8 °F - 62.6 °F 57% 29.89 in 5.0 mi WSW 15.0 mph - N/A   Scattered Clouds
6:00 PM 69.8 °F - 66.2 °F 88% 29.92 in 1.9 mi WSW 13.8 mph - N/A Rain Light Rain
7:00 PM 69 °F - 65 °F 84% 29.94 in 2 mi West 11.5 mph - - Rain Light Rain Showers
7:00 PM 69.8 °F - 64.4 °F 83% 29.92 in 2.5 mi West 11.5 mph - N/A Rain Light Rain Showers
8:00 PM 69.8 °F - 64.4 °F 83% 29.92 in 3.7 mi West 11.5 mph - N/A   Mostly Cloudy
9:00 PM 69.8 °F - 62.6 °F 78% 29.92 in 5.0 mi West 11.5 mph - N/A   Mostly Cloudy
10:00 PM 70 °F - 63 °F 72% 29.96 in 5 mi WSW 9.2 mph - -   Partly Cloudy
10:00 PM 69.8 °F - 62.6 °F 78% 29.95 in 0.7 mi WSW 9.2 mph - N/A   Mostly Cloudy
11:00 PM 71.6 °F - 62.6 °F 73% 29.95 in 0.7 mi West 11.5 mph - N/A   Unknown